Wind_Speed
6 8 10 11 13 15 16 16 13 8 8 7 5 6 7 6 5 6 10 13 13 14 16 15 14 12 12 5 7 10 10 10 9 5 2 3 5 3 3 5 4 4 3 8 10 10 13
6 7 9 11 13 15 16 17 17 13 8 8 8 7 9 9 9 8 8 10 13 13 13 15 13 12 13 6 13 11 10 10 9 4 4 4 2 5 1 2 4 2 2 8 17 17 10
5 7 9 12 13 14 15 16 17 18 14 9 8 9 9 11 11 10 9 8 12 12 14 12 13 10 6 9 13 10 10 10 11 4 6 3 5 4 4 5 4 3 4 6 13 5 6
4 6 8 10 11 13 15 16 18 19 18 13 9 10 11 11 11 11 10 8 11 12 12 10 12 7 3 13 13 12 9 7 9 6 2 4 3 3 2 1 3 3 2 2 6 11 8
4 6 8 9 10 12 14 15 17 19 20 17 10 10 13 11 9 10 9 8 10 9 9 5 10 6 4 10 15 11 9 8 6 5 3 3 2 4 3 1 3 2 1 2 10 14 6
4 5 7 9 10 12 13 15 16 18 20 20 13 10 14 11 8 7 7 6 9 4 8 3 8 3 5 12 13 10 7 6 4 3 3 2 2 2 1 2 2 2 3 2 7 4 4
4 5 7 8 10 12 13 15 17 19 20 22 17 10 14 11 7 5 5 4 4 3 2 2 2 0 9 14 7 7 7 5 4 3 2 2 1 1 6 5 7 3 3 5 2 2 3
5 6 8 9 10 12 13 15 17 19 21 22 18 10 13 10 5 3 4 2 2 2 3 3 5 8 7 10 6 7 7 3 2 3 2 2 3 3 6 8 7 6 4 4 2 3 2
6 6 7 9 10 11 12 14 16 19 21 23 19 10 12 7 4 1 2 2 2 2 1 3 5 6 5 7 4 7 9 5 1 4 3 1 5 7 4 2 2 3 3 2 1 3 4
6 7 7 9 10 11 12 13 15 17 20 23 20 9 11 5 4 2 1 2 1 0 4 5 3 3 6 4 3 8 7 3 2 3 4 4 6 5 4 3 2 2 6 3 2 3 2
8 7 8 9 10 11 12 13 15 17 19 22 20 9 10 6 3 2 1 2 1 2 4 4 5 5 10 3 5 4 6 2 2 4 2 5 5 5 3 3 3 0 3 2 2 4 3
10 9 8 9 9 10 10 13 14 16 18 21 18 8 10 6 4 2 1 1 2 6 4 5 4 6 5 3 3 6 3 4 3 3 3 5 2 2 3 3 2 3 2 6 4 3 3
12 11 11 10 11 10 11 11 14 15 17 19 16 7 11 7 3 1 0 1 5 5 2 4 3 5 3 3 5 6 4 5 4 6 6 7 3 2 2 1 1 3 4 3 4 3 4
14 14 13 13 13 12 10 11 13 14 16 18 14 5 9 7 3 0 1 4 5 3 4 2 2 4 3 3 1 6 2 3 1 4 1 3 7 1 2 1 4 2 5 4 3 2 3
17 15 15 15 15 14 13 12 12 13 15 17 14 5 4 6 3 0 0 4 6 5 1 3 4 2 3 1 1 3 3 1 3 1 4 3 5 4 2 4 3 2 2 3 5 2 2
22 20 18 18 16 15 15 13 12 12 13 16 13 5 3 5 2 1 4 3 2 3 3 2 0 1 2 4 5 3 2 1 2 1 1 4 3 1 4 3 3 2 1 3 3 1 3
25 24 22 20 19 17 15 15 14 12 13 14 11 4 3 4 2 0 2 4 4 5 4 3 4 2 4 3 1 2 3 3 2 2 2 1 0 5 1 2 4 3 2 2 3 3 1
27 26 26 24 23 20 17 15 15 13 12 11 6 2 4 2 1 2 2 4 1 3 4 3 2 5 4 1 3 2 3 5 2 1 1 0 3 4 5 1 0 2 2 3 3 1 2
31 30 30 27 26 23 20 17 16 14 11 10 6 4 5 3 1 2 2 2 3 4 4 4 3 5 3 3 1 3 3 1 4 3 2 3 1 4 6 4 1 1 0 3 3 3 4
34 32 31 32 29 26 23 19 17 14 11 8 5 2 3 4 2 4 2 2 2 3 3 4 3 2 1 3 5 3 2 1 2 2 3 3 2 5 5 5 2 4 2 2 3 2 1
38 35 33 31 32 31 26 21 19 16 12 6 4 4 2 2 3 3 3 1 2 2 4 5 2 5 6 3 2 4 3 3 0 1 2 2 3 3 6 9 4 5 6 5 7 5 4
42 40 37 34 33 32 30 23 19 17 15 12 5 4 3 2 1 3 4 5 6 3 6 4 5 1 6 5 6 5 3 3 3 1 0 2 2 3 5 0 4 5 7 8 5 4 8
43 43 41 37 36 33 31 26 22 19 17 11 12 10 4 3 4 3 5 6 7 5 5 4 7 3 4 9 12 9 8 4 3 4 2 1 1 3 5 4 7 5 5 6 4 4 5
44 48 43 41 38 36 32 27 25 23 21 19 11 9 7 4 4 5 4 7 7 7 3 3 7 4 2 2 3 5 5 6 5 5 5 4 2 1 4 5 2 4 2 4 6 5 8
40 45 51 45 41 39 35 31 28 26 25 23 19 14 7 3 8 6 9 6 5 5 4 5 7 5 4 1 1 4 2 1 2 0 3 2 3 1 1 2 6 2 1 3 2 5 6
45 43 49 51 43 40 36 34 31 28 26 25 22 19 11 2 8 9 5 9 5 3 2 5 5 6 4 2 1 3 4 3 3 1 3 4 3 3 1 1 4 1 1 2 1 5 2
35 40 49 51 44 39 36 35 32 30 27 26 22 21 19 7 10 10 6 6 8 4 2 1 5 5 6 2 3 4 4 2 3 5 4 2 1 4 3 3 7 2 3 2 2 5 1
16 24 40 48 43 39 37 37 33 30 27 28 28 22 22 8 15 11 13 8 8 7 4 6 3 2 3 3 3 3 4 3 1 3 5 5 5 3 2 2 5 3 3 3 3 5 5
20 10 24 50 40 36 37 36 34 30 31 29 31 27 23 18 8 14 19 17 15 10 10 13 2 5 7 3 1 0 3 1 3 2 1 2 3 1 6 4 2 3 5 7 12 13 12
Wind_Direction
26 24 36 35 39 37 32 25 16 7 5 355 316 285 275 269 284 320 348 357 353 358 2 3 2 4 13 12 5 354 349 344 344 330 17 217 254 220 191 171 243 241 282 277 274 291 289
25 30 32 35 33 32 29 26 22 13 359 347 341 306 277 267 267 289 323 345 350 350 351 2 354 359 13 25 2 357 358 8 358 332 309 289 210 253 301 227 198 251 328 313 284 282 289
26 27 31 31 32 29 25 22 23 14 4 341 331 328 306 276 264 265 289 318 345 339 348 352 358 345 7 1 3 359 357 10 15 20 353 317 265 230 189 346 287 254 279 326 282 229 249
26 26 28 29 26 25 20 17 16 15 8 358 332 329 329 302 272 257 266 291 324 332 337 340 353 348 347 1 2 2 360 4 359 1 347 335 313 252 242 250 263 226 97 28 275 176 245
19 17 18 19 19 20 18 15 12 11 7 0 344 334 337 320 294 251 253 269 311 324 334 340 355 5 6 3 359 352 355 7 9 22 8 338 25 20 339 203 288 236 195 195 312 192 173
0 2 7 5 11 12 14 9 10 8 6 2 350 341 341 330 312 245 244 257 305 295 342 333 350 346 354 345 340 8 360 341 343 331 344 75 53 324 224 172 244 253 249 159 250 176 179
335 347 352 357 2 5 6 7 5 4 4 2 353 343 347 339 321 230 234 257 288 272 346 42 323 263 319 334 343 0 11 339 328 292 338 271 305 241 206 209 246 247 247 206 292 162 138
330 338 340 349 354 357 359 1 3 360 360 0 357 347 351 351 339 215 224 214 288 263 305 278 317 304 323 332 319 347 350 349 13 304 316 13 264 215 242 255 265 287 195 331 63 73 124
314 329 334 338 343 347 350 357 358 358 358 357 357 351 353 358 4 285 225 231 262 287 312 287 311 300 322 328 316 325 340 328 264 319 348 162 270 319 197 224 101 350 43 319 242 141 59
303 312 322 328 333 336 342 348 352 354 356 355 354 353 353 358 349 330 287 207 242 158 61 293 344 346 320 317 300 337 340 335 339 309 330 275 317 356 4 43 356 61 329 281 89 42 147
294 302 310 318 324 329 332 338 344 348 353 357 353 350 355 1 348 319 301 265 133 117 33 285 302 326 321 293 314 349 352 326 321 302 60 270 316 356 348 326 311 234 337 18 78 71 47
289 292 299 305 310 318 323 328 336 342 348 354 355 347 357 4 352 342 322 161 132 44 276 337 303 344 19 318 314 310 350 348 306 314 280 258 279 204 236 287 265 323 64 34 48 69 22
282 286 291 296 302 309 316 320 328 336 344 351 354 350 356 5 14 24 156 135 32 103 281 307 324 357 324 299 326 17 9 20 43 19 357 329 259 261 240 326 138 136 72 359 13 8 218
286 288 290 294 297 301 305 311 321 329 338 346 349 329 1 4 17 69 167 54 57 249 252 320 328 308 281 6 317 346 26 27 114 106 39 6 337 32 7 285 186 129 137 151 221 207 259
279 280 284 284 290 295 299 304 312 322 331 340 341 313 326 357 359 1 330 58 204 200 216 322 319 329 309 344 238 14 352 240 255 164 134 31 288 333 29 4 13 29 62 167 104 29 47
279 279 279 282 283 287 292 296 303 313 323 333 334 304 272 348 339 324 80 235 220 226 165 134 225 138 285 301 351 47 319 252 292 239 290 210 307 260 288 48 53 59 155 18 14 220 279
276 276 276 275 278 280 284 289 295 304 315 328 324 285 252 338 321 203 140 226 240 232 221 162 192 234 233 281 247 281 252 258 195 304 219 287 7 286 12 104 173 355 356 17 144 113 172
274 271 272 273 274 272 274 276 283 294 307 317 307 312 235 309 316 71 169 197 244 205 206 267 239 210 208 218 270 268 246 218 189 180 215 220 158 274 250 62 221 299 185 137 115 278 169
280 277 270 266 267 268 268 269 273 283 300 317 290 264 233 239 212 278 257 265 230 193 206 189 249 221 192 218 274 216 259 193 175 172 187 181 293 334 348 4 347 29 197 117 100 32 209
277 274 275 270 262 260 259 258 259 266 280 301 286 318 215 211 217 156 188 239 263 223 250 203 224 198 221 249 214 271 275 249 223 176 154 150 177 194 207 219 195 291 231 180 130 110 239
270 273 271 269 267 262 254 247 248 251 257 264 241 253 232 245 239 178 174 213 201 260 216 215 239 211 194 254 249 239 225 311 179 131 111 119 252 184 253 253 237 240 231 194 194 204 187
266 266 268 267 264 262 254 244 238 237 240 238 241 216 212 242 265 178 206 223 191 227 172 220 209 185 196 222 208 221 204 194 208 129 63 348 268 1 289 86 196 266 237 226 228 226 260
259 260 260 261 264 258 246 238 233 231 232 226 229 235 220 213 152 134 231 211 195 171 220 216 202 182 216 235 251 262 248 254 204 168 166 79 0 22 270 342 314 300 233 187 191 197 174
252 253 253 254 255 256 242 233 228 226 229 229 228 211 187 256 186 198 219 209 208 209 222 217 201 171 225 212 269 266 249 253 241 237 185 146 135 148 274 334 357 259 115 184 207 236 214
266 256 248 248 248 251 240 227 226 225 226 231 232 224 211 232 207 242 222 218 217 205 218 231 228 214 204 254 357 320 300 290 217 4 182 162 123 245 261 270 286 56 251 167 176 295 201
265 260 254 243 242 245 235 223 221 225 226 228 230 226 228 196 234 219 168 203 194 193 312 216 218 201 185 106 129 228 239 245 211 154 55 82 90 136 174 223 254 62 158 202 191 307 181
284 269 243 238 234 235 232 222 221 221 226 228 227 222 222 245 258 193 187 183 178 165 168 208 178 163 181 139 195 209 250 208 238 186 170 153 152 196 209 253 288 268 173 156 64 253 250
311 278 233 230 230 229 227 218 221 222 224 229 229 221 218 232 255 240 229 184 165 186 159 162 126 193 97 175 188 215 206 231 264 178 177 174 158 200 134 199 291 183 121 183 263 325 298
5 347 243 227 223 226 223 220 220 223 228 229 230 223 223 227 254 244 239 235 224 224 207 179 244 163 175 122 189 50 239 222 202 240 103 240 194 186 202 233 313 235 256 309 315 307 318
Height
1556 1555 1553 1552 1549 1547 1545 1544 1542 1540 1539 1538 1537 1537 1536 1536 1535 1534 1533 1531 1529 1526 1524 1522 1519 1517 1515 1514 1514 1512 1510 1508 1505 1505 1505 1505 1505 1505 1505 1505 1507 1506 1503 1501 1501 1501 1502
1557 1555 1554 1553 1551 1549 1547 1545 1543 1541 1539 1538 1536 1535 1535 1534 1534 1533 1533 1531 1529 1527 1525 1522 1519 1518 1517 1516 1514 1512 1510 1508 1506 1505 1505 1505 1505 1505 1504 1504 1506 1504 1503 1501 1499 1497 1500
1557 1556 1554 1553 1552 1550 1548 1546 1543 1542 1539 1537 1536 1534 1533 1532 1532 1532 1532 1531 1529 1527 1525 1522 1520 1518 1518 1519 1514 1512 1510 1508 1507 1506 1506 1506 1506 1506 1504 1506 1505 1503 1503 1500 1498 1497 1498
1557 1556 1555 1553 1552 1550 1549 1547 1544 1542 1539 1536 1534 1533 1531 1530 1529 1529 1530 1530 1529 1527 1525 1522 1520 1519 1517 1516 1514 1513 1511 1509 1508 1507 1506 1506 1506 1506 1506 1506 1504 1503 1504 1504 1493 1493 1496
1557 1556 1555 1553 1552 1551 1549 1547 1545 1542 1539 1536 1533 1532 1529 1527 1527 1527 1528 1529 1528 1526 1524 1522 1521 1520 1519 1517 1514 1513 1511 1510 1509 1508 1507 1506 1507 1507 1507 1505 1506 1501 1502 1506 1502 1487 1491
1558 1557 1555 1554 1552 1551 1549 1548 1545 1543 1539 1536 1533 1530 1528 1526 1525 1525 1526 1527 1527 1526 1524 1522 1521 1522 1520 1518 1514 1513 1511 1510 1509 1508 1508 1507 1507 1507 1505 1506 1504 1503 1502 1500 1497 1489 1489
1558 1557 1556 1554 1553 1552 1550 1548 1546 1543 1539 1535 1532 1530 1527 1526 1524 1524 1526 1526 1529 1528 1525 1524 1523 1520 1518 1518 1514 1513 1511 1509 1509 1508 1509 1508 1509 1508 1504 1501 1498 1496 1497 1494 1485 1486 1488
1558 1557 1556 1555 1553 1551 1550 1548 1546 1543 1540 1536 1532 1530 1527 1526 1525 1525 1526 1525 1526 1528 1526 1524 1522 1520 1518 1517 1515 1513 1511 1511 1509 1510 1507 1510 1508 1500 1499 1499 1498 1496 1491 1487 1486 1486 1487
1558 1557 1556 1555 1553 1552 1550 1547 1546 1543 1540 1536 1532 1530 1527 1526 1526 1526 1526 1526 1525 1526 1526 1524 1522 1520 1519 1517 1515 1513 1512 1510 1508 1508 1507 1508 1501 1496 1496 1496 1493 1493 1490 1489 1488 1489 1490
1557 1557 1556 1555 1553 1551 1549 1547 1545 1543 1540 1536 1532 1529 1528 1526 1528 1526 1526 1526 1525 1526 1539 1527 1522 1521 1519 1516 1515 1513 1511 1512 1508 1509 1507 1505 1499 1498 1495 1495 1495 1493 1490 1489 1487 1491 1504
1556 1556 1555 1554 1552 1551 1549 1547 1544 1542 1539 1536 1532 1529 1528 1525 1526 1526 1527 1526 1526 1527 1564 1527 1522 1520 1518 1519 1515 1513 1511 1509 1510 1509 1509 1505 1501 1500 1497 1496 1495 1493 1490 1488 1490 1495 1499
1555 1554 1553 1553 1551 1549 1548 1546 1544 1541 1539 1536 1532 1530 1528 1527 1526 1526 1526 1526 1528 1544 1557 1529 1523 1521 1519 1517 1515 1512 1511 1511 1510 1508 1505 1501 1498 1498 1497 1494 1494 1493 1491 1494 1498 1503 1520
1553 1552 1551 1551 1550 1548 1547 1545 1543 1541 1538 1535 1532 1529 1528 1527 1527 1526 1526 1527 1543 1552 1534 1529 1528 1524 1524 1520 1517 1515 1515 1516 1520 1526 1523 1506 1497 1496 1495 1493 1493 1494 1500 1521 1515 1518 1514
1551 1550 1549 1549 1548 1547 1545 1543 1542 1540 1537 1535 1532 1529 1528 1527 1526 1526 1527 1530 1543 1536 1533 1528 1526 1525 1524 1521 1518 1519 1518 1521 1518 1521 1535 1535 1515 1495 1494 1494 1490 1492 1498 1520 1512 1518 1513
1548 1547 1546 1546 1546 1545 1544 1542 1540 1538 1536 1534 1531 1529 1528 1526 1526 1526 1528 1546 1540 1534 1529 1529 1527 1525 1525 1521 1522 1520 1521 1522 1519 1517 1521 1529 1508 1497 1497 1498 1500 1495 1505 1498 1512 1518 1526
1545 1545 1543 1543 1543 1542 1541 1540 1538 1537 1534 1533 1530 1528 1527 1525 1525 1526 1529 1533 1529 1528 1526 1527 1528 1527 1527 1525 1523 1522 1522 1519 1518 1518 1518 1518 1518 1500 1498 1497 1501 1500 1501 1505 1509 1504 1504
1540 1541 1540 1539 1539 1539 1538 1538 1536 1535 1534 1531 1529 1527 1526 1525 1524 1526 1536 1532 1527 1526 1528 1528 1526 1527 1527 1526 1525 1523 1520 1518 1517 1517 1517 1517 1518 1504 1497 1501 1505 1504 1503 1502 1506 1510 1513
1534 1535 1535 1536 1536 1535 1535 1535 1534 1533 1532 1530 1528 1527 1525 1524 1527 1527 1529 1526 1525 1523 1525 1526 1526 1525 1524 1523 1524 1522 1520 1517 1515 1515 1515 1517 1521 1523 1502 1501 1501 1500 1500 1502 1513 1503 1516
1528 1529 1529 1529 1530 1531 1532 1532 1532 1531 1530 1529 1527 1524 1523 1523 1527 1526 1524 1523 1522 1523 1522 1524 1524 1524 1522 1522 1523 1519 1517 1514 1514 1515 1515 1516 1519 1529 1507 1506 1501 1501 1501 1504 1508 1510 1505
1521 1522 1523 1524 1524 1525 1527 1528 1529 1528 1528 1529 1528 1526 1522 1521 1521 1520 1522 1521 1521 1520 1521 1521 1520 1522 1523 1520 1520 1517 1515 1514 1514 1514 1514 1514 1520 1517 1520 1505 1507 1503 1500 1501 1504 1516 1502
1513 1514 1516 1517 1519 1520 1520 1522 1524 1525 1525 1527 1525 1521 1520 1521 1519 1519 1520 1519 1519 1519 1520 1519 1519 1519 1521 1521 1517 1518 1513 1512 1513 1514 1513 1514 1516 1521 1512 1509 1507 1503 1500 1500 1504 1501 1504
1503 1506 1507 1508 1510 1513 1514 1517 1518 1519 1521 1523 1521 1519 1519 1518 1519 1520 1518 1516 1516 1515 1516 1516 1518 1515 1518 1519 1515 1515 1513 1512 1511 1512 1513 1515 1513 1514 1508 1500 1504 1501 1499 1500 1501 1498 1500
1491 1494 1497 1499 1502 1504 1507 1510 1514 1514 1517 1515 1514 1516 1516 1516 1516 1520 1516 1508 1509 1511 1510 1510 1511 1513 1514 1511 1511 1510 1510 1509 1509 1509 1512 1515 1517 1517 1507 1504 1501 1492 1487 1492 1490 1490 1487
1478 1481 1485 1488 1491 1494 1498 1503 1506 1508 1511 1512 1511 1512 1512 1514 1513 1511 1508 1507 1507 1507 1508 1508 1509 1510 1509 1509 1508 1509 1507 1508 1509 1508 1509 1513 1516 1522 1515 1506 1501 1479 1480 1481 1482 1478 1479
1467 1468 1471 1476 1480 1483 1487 1493 1499 1502 1503 1506 1506 1509 1508 1507 1505 1504 1504 1505 1505 1504 1506 1505 1506 1506 1506 1508 1510 1509 1509 1507 1507 1508 1509 1510 1514 1516 1521 1513 1486 1479 1480 1482 1480 1473 1472
1456 1456 1457 1462 1468 1473 1478 1482 1488 1495 1496 1498 1501 1503 1505 1503 1497 1495 1498 1501 1503 1504 1504 1502 1503 1503 1505 1508 1510 1507 1504 1498 1504 1510 1511 1511 1513 1516 1519 1508 1486 1476 1478 1478 1478 1483 1471
1441 1436 1439 1448 1456 1463 1468 1474 1480 1485 1489 1492 1493 1496 1500 1500 1494 1493 1493 1495 1496 1498 1500 1501 1500 1502 1504 1508 1510 1509 1503 1500 1498 1501 1512 1513 1516 1515 1514 1509 1491 1478 1477 1478 1482 1486 1472
1430 1426 1427 1436 1445 1453 1459 1464 1472 1477 1482 1485 1486 1488 1494 1493 1491 1491 1491 1488 1489 1493 1495 1498 1502 1500 1504 1507 1508 1504 1506 1498 1497 1494 1498 1500 1509 1510 1512 1506 1496 1478 1480 1480 1479 1474 1473
1432 1425 1422 1428 1437 1444 1452 1458 1462 1469 1474 1478 1480 1481 1486 1489 1487 1486 1486 1486 1485 1487 1490 1491 1493 1490 1493 1499 1503 1503 1501 1500 1495 1488 1491 1494 1491 1493 1496 1487 1479 1478 1477 1477 1477 1476 1475